Location: Ladrillo (historical)
(32.8195°N, 117.2231°W)
Time: 22:25:18
(UTC+00:00)

Altair - Pass Details

Date: 26 February 2021
Orbit: 1501 x 1683 km, 47.2° (Epoch: 15 April)

Event Time Altitude Azimuth Distance (km) Brightness Sun altitude
Exits shadow 09:46:53 13° 110° (ESE) 3,695 9.6 -55.7°
Drops below altitude 10° 09:47:38 10° 111° (ESE) 3,921 9.8 -55.5°
Sets 09:50:53 0° 115° (ESE) 4,918 10.4 -55.0°
